When you browse on this site, cookies collect data to enhance your experience and personalize the content and advertising you see.
Visit our Privacy Policy to learn more. By continuing to use the site, you agree to this use of cookies and data.
  • In Czech Republic
  • List of Countries
  • For 7 days
  • Water Temperature
  • Weather Map
  • Weather Widgets
  • user-avatar
    Login

    Hourly Weather Izh-Bayki

    Today, 31 May, Sunday

    Time Temperature Precipitation Wind Pressure Humidity
    00:00 +18°C° 0 mm 1 mps 742 mmHg 87%
    01:00 +18°C° 0.1 mm 1 mps 742 mmHg 87%
    02:00 +18°C° 0.1 mm 1 mps 741 mmHg 86%
    03:00 +18°C° 0.1 mm 1 mps 741 mmHg 86%
    04:00 +19°C° 0 mm 1 mps 740 mmHg 85%
    05:00 +19°C° 0 mm 1 mps 740 mmHg 84%
    06:00 +20°C° 0 mm 1 mps 739 mmHg 83%
    07:00 +21°C° 0 mm 1 mps 739 mmHg 79%
    08:00 +22°C° 0 mm 1 mps 739 mmHg 74%
    09:00 +23°C° 0 mm 1 mps 739 mmHg 70%
    10:00 +23°C° 0.9 mm 2 mps 738 mmHg 73%
    11:00 +22°C° 0.9 mm 4 mps 738 mmHg 76%
    12:00 +21°C° 0.9 mm 5 mps 738 mmHg 79%
    13:00 +21°C° 0.4 mm 6 mps 738 mmHg 78%
    14:00 +21°C° 0.4 mm 6 mps 738 mmHg 76%
    15:00 +21°C° 0.4 mm 7 mps 738 mmHg 75%
    16:00 +21°C° 0 mm 7 mps 738 mmHg 75%
    17:00 +20°C° 0 mm 6 mps 738 mmHg 76%
    18:00 +19°C° 0 mm 5 mps 738 mmHg 77%
    19:00 +17°C° 0 mm 5 mps 738 mmHg 79%
    20:00 +16°C° 0 mm 5 mps 738 mmHg 82%
    21:00 +15°C° 0 mm 4 mps 739 mmHg 84%
    22:00 +14°C° 0 mm 4 mps 739 mmHg 86%
    23:00 +14°C° 0 mm 5 mps 739 mmHg 88%

    Tomorrow, 1 June, Monday

    Time Temperature Precipitation Wind Pressure Humidity
    00:00 +13°C° 0 mm 5 mps 738 mmHg 91%
    01:00 +13°C° 0 mm 5 mps 739 mmHg 91%
    02:00 +12°C° 0 mm 5 mps 739 mmHg 92%
    03:00 +12°C° 0 mm 5 mps 739 mmHg 93%
    04:00 +12°C° 0 mm 5 mps 739 mmHg 91%
    05:00 +13°C° 0 mm 5 mps 739 mmHg 89%
    06:00 +13°C° 0 mm 5 mps 739 mmHg 87%
    07:00 +14°C° 0 mm 5 mps 740 mmHg 86%
    08:00 +14°C° 0 mm 5 mps 740 mmHg 85%
    09:00 +14°C° 0 mm 5 mps 741 mmHg 84%
    10:00 +15°C° 0.2 mm 5 mps 741 mmHg 82%
    11:00 +15°C° 0.2 mm 5 mps 741 mmHg 81%
    12:00 +16°C° 0.2 mm 5 mps 742 mmHg 79%
    13:00 +16°C° 0.5 mm 5 mps 742 mmHg 79%
    14:00 +16°C° 0.5 mm 5 mps 742 mmHg 79%
    15:00 +18°C° 0.5 mm 4 mps 743 mmHg 79%
    16:00 +17°C° 0.3 mm 4 mps 743 mmHg 81%
    17:00 +15°C° 0.3 mm 4 mps 743 mmHg 83%
    18:00 +16°C° 0.3 mm 3 mps 743 mmHg 85%
    19:00 +13°C° 0 mm 3 mps 744 mmHg 88%
    20:00 +12°C° 0 mm 3 mps 744 mmHg 91%
    21:00 +12°C° 0 mm 2 mps 745 mmHg 94%
    22:00 +10°C° 0 mm 2 mps 745 mmHg 95%
    23:00 +10°C° 0 mm 2 mps 745 mmHg 95%

    Day after tomorrow, 2 June, Tuesday

    Time Temperature Precipitation Wind Pressure Humidity
    00:00 +9°C° 0 mm 2 mps 745 mmHg 96%
    01:00 +8°C° 0 mm 2 mps 746 mmHg 96%
    02:00 +8°C° 0 mm 2 mps 746 mmHg 96%
    03:00 +8°C° 0 mm 2 mps 746 mmHg 97%
    04:00 +8°C° 0 mm 2 mps 746 mmHg 95%
    05:00 +9°C° 0 mm 3 mps 746 mmHg 93%
    06:00 +10°C° 0 mm 3 mps 746 mmHg 91%
    07:00 +11°C° 0 mm 3 mps 747 mmHg 88%
    08:00 +12°C° 0 mm 3 mps 747 mmHg 84%
    09:00 +13°C° 0 mm 3 mps 747 mmHg 80%
    10:00 +14°C° 0 mm 3 mps 747 mmHg 78%
    11:00 +14°C° 0 mm 3 mps 747 mmHg 77%
    12:00 +16°C° 0 mm 3 mps 747 mmHg 75%
    13:00 +16°C° 0 mm 3 mps 747 mmHg 76%
    14:00 +16°C° 0 mm 3 mps 747 mmHg 77%
    15:00 +15°C° 0 mm 4 mps 747 mmHg 78%
    16:00 +14°C° 0 mm 4 mps 747 mmHg 80%
    17:00 +14°C° 0 mm 4 mps 747 mmHg 82%
    18:00 +13°C° 0 mm 4 mps 747 mmHg 84%
    19:00 +13°C° 0.1 mm 4 mps 747 mmHg 85%
    20:00 +12°C° 0.1 mm 4 mps 747 mmHg 85%
    21:00 +12°C° 0.1 mm 4 mps 747 mmHg 86%
    22:00 +12°C° 0.4 mm 4 mps 747 mmHg 88%
    23:00 +11°C° 0.4 mm 4 mps 747 mmHg 90%

    3 June, Wednesday

    Time Temperature Precipitation Wind Pressure Humidity
    00:00 +11°C° 0.4 mm 4 mps 747 mmHg 91%
    01:00 +11°C° 0.6 mm 4 mps 746 mmHg 92%
    02:00 +10°C° 0.6 mm 4 mps 746 mmHg 92%
    03:00 +10°C° 0.6 mm 4 mps 746 mmHg 93%
    04:00 +10°C° 0.3 mm 4 mps 746 mmHg 93%
    05:00 +10°C° 0.3 mm 4 mps 746 mmHg 93%
    06:00 +10°C° 0.3 mm 4 mps 746 mmHg 93%
    07:00 +10°C° 0.1 mm 4 mps 747 mmHg 92%
    08:00 +11°C° 0.1 mm 4 mps 747 mmHg 91%
    09:00 +11°C° 0.1 mm 4 mps 747 mmHg 90%
    10:00 +12°C° 0 mm 4 mps 747 mmHg 85%
    11:00 +14°C° 0 mm 4 mps 747 mmHg 81%
    12:00 +15°C° 0 mm 4 mps 747 mmHg 76%
    13:00 +17°C° 0 mm 4 mps 747 mmHg 74%
    14:00 +18°C° 0 mm 4 mps 746 mmHg 72%
    15:00 +18°C° 0 mm 4 mps 746 mmHg 69%
    16:00 +18°C° 0 mm 4 mps 746 mmHg 72%
    17:00 +18°C° 0 mm 3 mps 746 mmHg 75%
    18:00 +17°C° 0 mm 3 mps 746 mmHg 78%
    19:00 +16°C° 0 mm 3 mps 746 mmHg 81%
    20:00 +14°C° 0 mm 3 mps 746 mmHg 85%
    21:00 +12°C° 0 mm 3 mps 746 mmHg 88%
    22:00 +12°C° 0 mm 3 mps 746 mmHg 88%
    23:00 +11°C° 0 mm 3 mps 746 mmHg 88%

    4 June, Thursday

    Time Temperature Precipitation Wind Pressure Humidity
    00:00 +11°C° 0 mm 3 mps 746 mmHg 89%
    01:00 +10°C° 0 mm 3 mps 746 mmHg 89%
    02:00 +10°C° 0 mm 3 mps 746 mmHg 90%
    03:00 +10°C° 0 mm 3 mps 746 mmHg 90%
    04:00 +10°C° 0 mm 4 mps 746 mmHg 87%
    05:00 +11°C° 0 mm 4 mps 746 mmHg 83%
    06:00 +12°C° 0 mm 5 mps 746 mmHg 80%
    07:00 +13°C° 0 mm 5 mps 746 mmHg 76%
    08:00 +15°C° 0 mm 5 mps 746 mmHg 71%
    09:00 +16°C° 0 mm 6 mps 746 mmHg 67%
    10:00 +17°C° 0 mm 6 mps 746 mmHg 65%
    11:00 +19°C° 0 mm 6 mps 746 mmHg 63%
    12:00 +20°C° 0 mm 6 mps 746 mmHg 61%
    13:00 +20°C° 0 mm 6 mps 745 mmHg 62%
    14:00 +20°C° 0 mm 6 mps 745 mmHg 63%
    15:00 +20°C° 0 mm 6 mps 745 mmHg 64%
    16:00 +20°C° 0 mm 6 mps 744 mmHg 69%
    17:00 +19°C° 0 mm 5 mps 744 mmHg 74%
    18:00 +19°C° 0 mm 5 mps 744 mmHg 78%
    19:00 +17°C° 0 mm 5 mps 743 mmHg 81%
    20:00 +16°C° 0 mm 6 mps 743 mmHg 84%
    21:00 +15°C° 0 mm 6 mps 742 mmHg 87%
    22:00 +15°C° 0 mm 6 mps 742 mmHg 88%
    23:00 +15°C° 0 mm 6 mps 742 mmHg 89%

    5 June, Friday

    Time Temperature Precipitation Wind Pressure Humidity
    00:00 +14°C° 0 mm 6 mps 742 mmHg 90%
    01:00 +14°C° 0 mm 6 mps 741 mmHg 92%
    02:00 +14°C° 0 mm 6 mps 741 mmHg 93%
    03:00 +14°C° 0 mm 6 mps 741 mmHg 95%
    04:00 +15°C° 0 mm 6 mps 741 mmHg 93%
    05:00 +15°C° 0 mm 6 mps 740 mmHg 90%
    06:00 +16°C° 0 mm 6 mps 740 mmHg 88%
    07:00 +17°C° 0 mm 7 mps 740 mmHg 85%
    08:00 +18°C° 0 mm 7 mps 740 mmHg 83%
    09:00 +20°C° 0 mm 7 mps 740 mmHg 80%
    10:00 +18°C° 1.2 mm 7 mps 740 mmHg 85%
    11:00 +17°C° 1.2 mm 7 mps 740 mmHg 89%
    12:00 +16°C° 1.2 mm 6 mps 740 mmHg 94%
    13:00 +16°C° 2.4 mm 6 mps 740 mmHg 93%
    14:00 +16°C° 2.4 mm 6 mps 740 mmHg 93%
    15:00 +17°C° 2.4 mm 5 mps 740 mmHg 92%
    16:00 +17°C° 1.2 mm 5 mps 740 mmHg 93%
    17:00 +18°C° 1.2 mm 4 mps 740 mmHg 93%
    18:00 +18°C° 1.2 mm 4 mps 741 mmHg 94%
    19:00 +18°C° 0.5 mm 3 mps 741 mmHg 95%
    20:00 +17°C° 0.5 mm 3 mps 741 mmHg 95%
    21:00 +16°C° 0.5 mm 2 mps 741 mmHg 96%
    22:00 +16°C° 0 mm 2 mps 742 mmHg 96%
    23:00 +15°C° 0 mm 2 mps 742 mmHg 96%
    Show more